Volver al catálogo

FALCON 9 R/B

ActivoMEO
NORAD 62364·ROCKET BODY·🇺🇸 United States

Lanzado Dec 17, 2024 desde Cape Canaveral Space Force Station

Loading…

Próximos Pases (próximas 24 horas)

TLE

ActualizadoSource: Space-Track

Época: Sep 14, 2026, 19:18 UTC

1 62364U 24244C   26257.80450734  .00000086  00000-0  17082-1 0  9993
2 62364   8.8694  35.3555 1936360 228.0340 113.7915  7.31343685 46558

Sigue FALCON 9 R/B en tiempo real con AllMySat

Download on the App Store